timestamp,wind_dir_avg,wind_spd_avg,wind_spd_max_dir,wind_spd_gust,battery_voltage,lat,long
2024-05-10 00:04:00+00:00,315.0,0.01,48.0,0.0,12.57,47.59359,-54.27349
2024-05-10 00:14:00+00:00,315.0,0.01,48.0,0.0,12.25,47.59359,-54.27349
2024-05-10 00:24:00+00:00,315.0,0.01,48.0,0.0,12.25,47.59359,-54.27349
2024-05-10 00:34:00+00:00,315.0,0.01,48.0,0.0,12.25,47.59359,-54.27349
2024-05-10 00:44:00+00:00,315.0,0.01,48.0,0.0,12.25,47.59359,-54.27349
2024-05-10 00:54:00+00:00,315.0,0.01,48.0,0.0,12.25,47.59359,-54.27349
2024-05-10 01:04:00+00:00,315.0,0.01,48.0,0.0,12.25,47.59359,-54.27349
2024-05-10 01:14:00+00:00,315.0,0.01,48.0,0.0,12.25,47.59359,-54.27349
2024-05-10 01:24:00+00:00,315.0,0.01,48.0,0.0,12.25,47.59359,-54.27349
2024-05-10 01:34:00+00:00,315.0,0.01,48.0,0.0,12.25,47.59359,-54.27349
2024-05-10 01:44:00+00:00,315.0,0.01,48.0,0.0,12.25,47.59359,-54.27349
2024-05-10 01:54:00+00:00,315.0,0.01,48.0,0.0,12.25,47.59359,-54.27349
2024-05-10 02:04:00+00:00,315.0,0.01,48.0,0.0,12.25,47.59359,-54.27349
2024-05-10 02:14:00+00:00,315.0,0.01,48.0,0.0,12.17,47.59359,-54.27349
2024-05-10 02:24:00+00:00,315.0,0.01,48.0,0.0,12.17,47.59359,-54.27349
2024-05-10 02:34:00+00:00,315.0,0.01,48.0,0.0,12.17,47.59359,-54.27349
2024-05-10 02:44:00+00:00,315.0,0.01,48.0,0.0,12.17,47.59359,-54.27349
2024-05-10 02:54:00+00:00,315.0,0.01,48.0,0.0,12.17,47.59359,-54.27349
2024-05-10 03:04:00+00:00,315.0,0.01,48.0,0.0,12.17,47.59359,-54.27349
2024-05-10 03:14:00+00:00,315.0,0.01,48.0,0.0,12.17,47.59359,-54.27349
2024-05-10 03:24:00+00:00,315.0,0.01,48.0,0.0,12.17,47.59359,-54.27349
2024-05-10 03:34:00+00:00,315.0,0.01,48.0,0.0,12.17,47.59359,-54.27349
2024-05-10 03:44:00+00:00,315.0,0.01,48.0,0.0,12.17,47.59359,-54.27349
2024-05-10 03:54:00+00:00,315.0,0.01,48.0,0.0,12.17,47.59359,-54.27349
2024-05-10 04:04:00+00:00,315.0,0.01,48.0,0.0,12.17,47.59359,-54.27349
2024-05-10 04:14:00+00:00,315.0,0.01,48.0,0.0,12.17,47.59359,-54.27349
2024-05-10 04:24:00+00:00,315.0,0.01,48.0,0.0,12.17,47.59359,-54.27349
2024-05-10 04:34:00+00:00,315.0,0.01,48.0,0.0,12.17,47.59359,-54.27349
2024-05-10 04:44:00+00:00,315.0,0.01,48.0,0.0,12.17,47.59359,-54.27349
2024-05-10 04:54:00+00:00,315.0,0.01,48.0,0.0,12.17,47.59359,-54.27349
2024-05-10 05:04:00+00:00,315.0,0.01,48.0,0.0,12.17,47.59359,-54.27349
2024-05-10 05:14:00+00:00,315.0,0.01,48.0,0.0,12.17,47.59359,-54.27349
2024-05-10 05:24:00+00:00,315.0,0.01,48.0,0.0,12.17,47.59359,-54.27349
2024-05-10 05:34:00+00:00,315.0,0.01,48.0,0.0,12.17,47.59359,-54.27349
2024-05-10 05:44:00+00:00,315.0,0.01,48.0,0.0,12.17,47.59359,-54.27349
2024-05-10 05:54:00+00:00,315.0,0.01,48.0,0.0,12.17,47.59359,-54.27349
2024-05-10 06:04:00+00:00,315.0,0.01,48.0,0.0,12.17,47.59359,-54.27349
2024-05-10 06:14:00+00:00,315.0,0.01,48.0,0.0,12.09,47.59359,-54.27349
2024-05-10 06:24:00+00:00,315.0,0.01,48.0,0.0,12.09,47.59359,-54.27349
2024-05-10 06:34:00+00:00,315.0,0.01,48.0,0.0,12.09,47.59359,-54.27349
2024-05-10 06:44:00+00:00,315.0,0.01,48.0,0.0,12.09,47.59359,-54.27349
2024-05-10 06:54:00+00:00,315.0,0.01,48.0,0.0,12.09,47.59359,-54.27349
2024-05-10 07:04:00+00:00,315.0,0.01,48.0,0.0,12.09,47.59359,-54.27349
2024-05-10 07:14:00+00:00,315.0,0.01,48.0,0.0,12.09,47.59359,-54.27349
2024-05-10 07:24:00+00:00,315.0,0.01,48.0,0.0,12.09,47.59359,-54.27349
2024-05-10 07:34:00+00:00,315.0,0.01,48.0,0.0,12.09,47.59359,-54.27349
2024-05-10 07:44:00+00:00,315.0,0.01,48.0,0.0,12.09,47.59359,-54.27349
2024-05-10 07:54:00+00:00,315.0,0.01,48.0,0.0,12.09,47.59359,-54.27349
2024-05-10 08:04:00+00:00,315.0,0.01,48.0,0.0,12.09,47.59359,-54.27349
2024-05-10 08:14:00+00:00,315.0,0.01,48.0,0.0,12.01,47.59359,-54.27349
2024-05-10 08:24:00+00:00,315.0,0.01,48.0,0.0,12.01,47.59359,-54.27349
2024-05-10 08:34:00+00:00,315.0,0.01,48.0,0.0,12.01,47.59359,-54.27349
2024-05-10 08:44:00+00:00,315.0,0.01,48.0,0.0,12.01,47.59359,-54.27349
2024-05-10 08:54:00+00:00,315.0,0.01,48.0,0.0,12.01,47.59359,-54.27349
2024-05-10 09:04:00+00:00,315.0,0.01,48.0,0.0,12.01,47.59359,-54.27349
2024-05-10 09:14:00+00:00,315.0,0.01,48.0,0.0,12.09,47.59359,-54.27349
2024-05-10 09:24:00+00:00,315.0,0.01,48.0,0.0,12.09,47.59359,-54.27349
2024-05-10 09:34:00+00:00,315.0,0.01,48.0,0.0,12.09,47.59359,-54.27349
2024-05-10 09:44:00+00:00,315.0,0.01,48.0,0.0,12.09,47.59359,-54.27349
2024-05-10 09:54:00+00:00,315.0,0.01,48.0,0.0,12.09,47.59359,-54.27349
2024-05-10 10:04:00+00:00,315.0,0.01,48.0,0.0,12.09,47.59359,-54.27349
2024-05-10 10:14:00+00:00,315.0,0.01,48.0,0.0,13.6,47.59359,-54.27349
2024-05-10 10:24:00+00:00,315.0,0.01,48.0,0.0,13.6,47.59359,-54.27349
2024-05-10 10:34:00+00:00,315.0,0.01,48.0,0.0,13.6,47.59359,-54.27349
2024-05-10 10:44:00+00:00,315.0,0.01,48.0,0.0,13.6,47.59359,-54.27349
2024-05-10 10:54:00+00:00,315.0,0.01,48.0,0.0,13.6,47.59359,-54.27349
2024-05-10 11:04:00+00:00,315.0,0.01,48.0,0.0,13.6,47.59359,-54.27349
2024-05-10 11:14:01+00:00,315.0,0.01,48.0,0.0,13.53,47.59359,-54.27349
2024-05-10 11:24:01+00:00,315.0,0.01,48.0,0.0,13.53,47.59359,-54.27349
2024-05-10 11:34:01+00:00,315.0,0.01,48.0,0.0,13.53,47.59359,-54.27349
2024-05-10 11:44:01+00:00,315.0,0.01,48.0,0.0,13.53,47.59359,-54.27349
2024-05-10 11:54:01+00:00,315.0,0.01,48.0,0.0,13.53,47.59359,-54.27349
2024-05-10 12:04:01+00:00,315.0,0.01,48.0,0.0,13.53,47.59359,-54.27349
2024-05-10 12:14:00+00:00,315.0,0.01,48.0,0.0,14.32,47.59359,-54.27349
2024-05-10 12:24:00+00:00,315.0,0.01,48.0,0.0,14.32,47.59359,-54.27349
2024-05-10 12:34:00+00:00,315.0,0.01,48.0,0.0,14.32,47.59359,-54.27349
2024-05-10 12:44:00+00:00,315.0,0.01,48.0,0.0,14.32,47.59359,-54.27349
2024-05-10 12:54:00+00:00,315.0,0.01,48.0,0.0,14.32,47.59359,-54.27349
2024-05-10 13:04:00+00:00,315.0,0.01,48.0,0.0,14.32,47.59359,-54.27349
2024-05-10 13:14:01+00:00,315.0,0.01,48.0,0.0,13.6,47.59359,-54.27349
2024-05-10 13:24:01+00:00,315.0,0.01,48.0,0.0,13.6,47.59359,-54.27349
2024-05-10 13:34:01+00:00,315.0,0.01,48.0,0.0,13.6,47.59359,-54.27349
2024-05-10 13:44:01+00:00,315.0,0.01,48.0,0.0,13.6,47.59359,-54.27349
2024-05-10 13:54:01+00:00,315.0,0.01,48.0,0.0,13.6,47.59359,-54.27349
2024-05-10 14:04:01+00:00,315.0,0.01,48.0,0.0,13.6,47.59359,-54.27349
2024-05-10 14:14:00+00:00,315.0,0.01,48.0,0.0,13.53,47.59359,-54.27349
2024-05-10 14:24:00+00:00,315.0,0.01,48.0,0.0,13.53,47.59359,-54.27349
2024-05-10 14:34:00+00:00,315.0,0.01,48.0,0.0,13.53,47.59359,-54.27349
2024-05-10 14:44:00+00:00,315.0,0.01,48.0,0.0,13.53,47.59359,-54.27349
2024-05-10 14:54:00+00:00,315.0,0.01,48.0,0.0,13.53,47.59359,-54.27349
2024-05-10 15:04:00+00:00,315.0,0.01,48.0,0.0,13.53,47.59359,-54.27349
2024-05-10 15:14:01+00:00,315.0,0.01,48.0,0.0,13.44,47.59359,-54.27349
2024-05-10 15:24:01+00:00,315.0,0.01,48.0,0.0,13.44,47.59359,-54.27349
2024-05-10 15:34:01+00:00,315.0,0.01,48.0,0.0,13.44,47.59359,-54.27349
2024-05-10 15:44:01+00:00,315.0,0.01,48.0,0.0,13.44,47.59359,-54.27349
2024-05-10 15:54:01+00:00,315.0,0.01,48.0,0.0,13.44,47.59359,-54.27349
2024-05-10 16:04:01+00:00,315.0,0.01,48.0,0.0,13.44,47.59359,-54.27349
2024-05-10 16:14:00+00:00,315.0,0.01,48.0,0.0,13.68,47.59359,-54.27349
2024-05-10 16:24:00+00:00,315.0,0.01,48.0,0.0,13.68,47.59359,-54.27349
2024-05-10 16:34:00+00:00,315.0,0.01,48.0,0.0,13.68,47.59359,-54.27349
2024-05-10 16:44:00+00:00,315.0,0.01,48.0,0.0,13.68,47.59359,-54.27349
2024-05-10 16:54:00+00:00,315.0,0.01,48.0,0.0,13.68,47.59359,-54.27349
2024-05-10 17:04:00+00:00,315.0,0.01,48.0,0.0,13.68,47.59359,-54.27349
2024-05-10 17:14:00+00:00,315.0,0.01,48.0,0.0,13.53,47.59359,-54.27349
2024-05-10 17:24:00+00:00,315.0,0.01,48.0,0.0,13.53,47.59359,-54.27349
2024-05-10 17:34:00+00:00,315.0,0.01,48.0,0.0,13.53,47.59359,-54.27349
2024-05-10 17:44:00+00:00,315.0,0.01,48.0,0.0,13.53,47.59359,-54.27349
2024-05-10 17:54:00+00:00,315.0,0.01,48.0,0.0,13.53,47.59359,-54.27349
2024-05-10 18:04:00+00:00,315.0,0.01,48.0,0.0,13.53,47.59359,-54.27349
2024-05-10 18:14:00+00:00,315.0,0.01,48.0,0.0,13.53,47.59359,-54.27349
2024-05-10 18:24:00+00:00,315.0,0.01,48.0,0.0,13.53,47.59359,-54.27349
2024-05-10 18:34:00+00:00,315.0,0.01,48.0,0.0,13.53,47.59359,-54.27349
2024-05-10 18:44:00+00:00,315.0,0.01,48.0,0.0,13.53,47.59359,-54.27349
2024-05-10 18:54:00+00:00,315.0,0.01,48.0,0.0,13.53,47.59359,-54.27349
2024-05-10 19:04:00+00:00,315.0,0.01,48.0,0.0,13.53,47.59359,-54.27349
2024-05-10 19:14:00+00:00,315.0,0.01,48.0,0.0,13.44,47.59359,-54.27349
2024-05-10 19:24:00+00:00,315.0,0.01,48.0,0.0,13.44,47.59359,-54.27349
2024-05-10 19:34:00+00:00,315.0,0.01,48.0,0.0,13.44,47.59359,-54.27349
2024-05-10 19:44:00+00:00,315.0,0.01,48.0,0.0,13.44,47.59359,-54.27349
2024-05-10 19:54:00+00:00,315.0,0.01,48.0,0.0,13.44,47.59359,-54.27349
2024-05-10 20:04:00+00:00,315.0,0.01,48.0,0.0,13.44,47.59359,-54.27349
2024-05-10 20:14:01+00:00,315.0,0.01,48.0,0.0,13.44,47.59359,-54.27349
2024-05-10 20:24:01+00:00,315.0,0.01,48.0,0.0,13.44,47.59359,-54.27349
2024-05-10 20:34:01+00:00,315.0,0.01,48.0,0.0,13.44,47.59359,-54.27349
2024-05-10 20:44:01+00:00,315.0,0.01,48.0,0.0,13.44,47.59359,-54.27349
2024-05-10 20:54:01+00:00,315.0,0.01,48.0,0.0,13.44,47.59359,-54.27349
2024-05-10 21:04:01+00:00,315.0,0.01,48.0,0.0,13.44,47.59359,-54.27349
2024-05-10 21:14:00+00:00,315.0,0.01,48.0,0.0,13.37,47.59359,-54.27349
2024-05-10 21:24:00+00:00,315.0,0.01,48.0,0.0,13.37,47.59359,-54.27349
2024-05-10 21:34:00+00:00,315.0,0.01,48.0,0.0,13.37,47.59359,-54.27349
2024-05-10 21:44:00+00:00,315.0,0.01,48.0,0.0,13.37,47.59359,-54.27349
2024-05-10 21:54:00+00:00,315.0,0.01,48.0,0.0,13.37,47.59359,-54.27349
2024-05-10 22:04:00+00:00,315.0,0.01,48.0,0.0,13.37,47.59359,-54.27349
2024-05-10 23:14:00+00:00,315.0,0.01,48.0,0.0,12.57,47.59359,-54.27349
2024-05-10 23:24:00+00:00,315.0,0.01,48.0,0.0,12.57,47.59359,-54.27349
2024-05-10 23:34:00+00:00,315.0,0.01,48.0,0.0,12.57,47.59359,-54.27349
2024-05-10 23:44:00+00:00,315.0,0.01,48.0,0.0,12.57,47.59359,-54.27349
2024-05-10 23:54:00+00:00,315.0,0.01,48.0,0.0,12.57,47.59359,-54.27349
